| time (UTC) | temp C | wind direction | speed KPH | gust KPH | rain 1hr cm | rain 24hr cm | rain mn cm | humidity % | barometer mb |
| 20260507161048 | 12 | 0 | 0.0 | 0.0 | 0.00 | 0.00 | 0.00 | 69 | 1017.5 |
| 20260507160047 | 12 | 0 | 0.0 | 0.0 | 0.00 | 0.00 | 0.00 | 68 | 1017.5 |
| 20260507154048 | 12 | 0 | 0.0 | 0.0 | 0.00 | 0.00 | 0.00 | 68 | 1017.6 |
| 20260507152048 | 12 | 0 | 0.0 | 0.0 | 0.00 | 0.00 | 0.00 | 69 | 1017.6 |
| 20260507151046 | 12 | 0 | 0.0 | 0.0 | 0.00 | 0.00 | 0.00 | 69 | 1017.5 |
| 20260507144046 | 12 | 0 | 0.0 | 0.0 | 0.00 | 0.00 | 0.00 | 68 | 1017.6 |
| 20260507143045 | 12 | 0 | 0.0 | 0.0 | 0.00 | 0.00 | 0.00 | 68 | 1017.5 |
| 20260507142045 | 12 | 0 | 0.0 | 0.0 | 0.00 | 0.00 | 0.00 | 69 | 1017.6 |
| 20260507141047 | 12 | 0 | 0.0 | 0.0 | 0.00 | 0.00 | 0.00 | 70 | 1017.6 |
| 20260507135049 | 12 | 0 | 0.0 | 0.0 | 0.00 | 0.00 | 0.00 | 71 | 1017.7 |
| 20260507134048 | 12 | 0 | 0.0 | 0.0 | 0.00 | 0.00 | 0.00 | 71 | 1017.7 |
| 20260507133050 | 12 | 0 | 0.0 | 0.0 | 0.00 | 0.00 | 0.00 | 71 | 1017.7 |
| 20260507132049 | 12 | 0 | 0.0 | 0.0 | 0.00 | 0.00 | 0.00 | 72 | 1017.7 |
| 20260507131048 | 12 | 0 | 0.0 | 0.0 | 0.00 | 0.00 | 0.00 | 71 | 1017.7 |
| 20260507130048 | 12 | 0 | 0.0 | 0.0 | 0.00 | 0.00 | 0.00 | 71 | 1017.7 |
| 20260507125047 | 12 | 0 | 0.0 | 0.0 | 0.00 | 0.00 | 0.00 | 72 | 1017.6 |
| 20260507124049 | 12 | 0 | 0.0 | 0.0 | 0.00 | 0.00 | 0.00 | 71 | 1017.6 |
| 20260507122045 | 12 | 0 | 0.0 | 0.0 | 0.00 | 0.00 | 0.00 | 69 | 1017.5 |
| 20260507120047 | 12 | 0 | 0.0 | 0.0 | 0.00 | 0.00 | 0.00 | 68 | 1017.4 |
| 20260507115047 | 12 | 0 | 0.0 | 0.0 | 0.00 | 0.00 | 0.00 | 71 | 1017.4 |
| 20260507114046 | 12 | 0 | 0.0 | 0.0 | 0.00 | 0.00 | 0.00 | 72 | 1017.5 |
| 20260507112048 | 12 | 0 | 0.0 | 0.0 | 0.00 | 0.03 | 0.00 | 71 | 1017.5 |
| 20260507111048 | 12 | 0 | 0.0 | 0.0 | 0.00 | 0.03 | 0.00 | 72 | 1017.6 |
| 20260507110047 | 12 | 0 | 0.0 | 0.0 | 0.00 | 0.03 | 0.00 | 71 | 1017.6 |
| 20260507105049 | 12 | 0 | 0.0 | 0.0 | 0.00 | 0.05 | 0.00 | 73 | 1017.6 |
| 20260507104046 | 12 | 0 | 0.0 | 0.0 | 0.00 | 0.05 | 0.00 | 73 | 1017.5 |
| 20260507103047 | 12 | 0 | 0.0 | 0.0 | 0.00 | 0.05 | 0.00 | 76 | 1017.6 |
| 20260507102046 | 12 | 0 | 0.0 | 0.0 | 0.00 | 0.08 | 0.00 | 74 | 1017.5 |
| 20260507101045 | 12 | 0 | 0.0 | 0.0 | 0.00 | 0.08 | 0.00 | 76 | 1017.4 |
| 20260507100048 | 11 | 0 | 0.0 | 0.0 | 0.00 | 0.10 | 0.00 | 76 | 1017.5 |
| 20260507095045 | 11 | 0 | 0.0 | 0.0 | 0.00 | 0.13 | 0.00 | 78 | 1017.4 |
| 20260507094044 | 11 | 0 | 0.0 | 0.0 | 0.00 | 0.15 | 0.00 | 79 | 1017.4 |
| 20260507093045 | 11 | 0 | 0.0 | 0.0 | 0.00 | 0.15 | 0.00 | 80 | 1017.5 |
| 20260507091045 | 10 | 0 | 0.0 | 0.0 | 0.00 | 0.23 | 0.00 | 82 | 1017.4 |
| 20260507090047 | 10 | 0 | 0.0 | 0.0 | 0.00 | 0.23 | 0.00 | 82 | 1017.4 |
| 20260507085046 | 10 | 0 | 0.0 | 0.0 | 0.00 | 0.23 | 0.00 | 84 | 1017.4 |
| 20260507084045 | 10 | 0 | 0.0 | 0.0 | 0.00 | 0.28 | 0.00 | 83 | 1017.4 |
| 20260507083047 | 10 | 0 | 0.0 | 0.0 | 0.00 | 0.30 | 0.00 | 85 | 1017.3 |
| 20260507082045 | 10 | 0 | 0.0 | 0.0 | 0.00 | 0.30 | 0.00 | 85 | 1017.2 |
| 20260507081048 | 10 | 0 | 0.0 | 0.0 | 0.00 | 0.33 | 0.00 | 87 | 1017.2 |
| 20260507080045 | 9 | 0 | 0.0 | 0.0 | 0.00 | 0.33 | 0.00 | 89 | 1017.2 |
| 20260507075045 | 9 | 0 | 0.0 | 0.0 | 0.00 | 0.33 | 0.00 | 90 | 1017.1 |
| 20260507074048 | 9 | 0 | 0.0 | 0.0 | 0.00 | 0.33 | 0.00 | 92 | 1017.1 |
| 20260507071047 | 8 | 0 | 0.0 | 0.0 | 0.00 | 0.36 | 0.00 | 92 | 1017.0 |
| 20260507065043 | 8 | 0 | 0.0 | 0.0 | 0.00 | 0.38 | 0.00 | 94 | 1017.0 |
| 20260507063045 | 8 | 0 | 0.0 | 0.0 | 0.00 | 0.41 | 0.00 | 97 | 1016.8 |
| 20260507062045 | 7 | 0 | 0.0 | 0.0 | 0.00 | 0.41 | 0.00 | 98 | 1016.8 |
| 20260507061047 | 7 | 0 | 0.0 | 0.0 | 0.00 | 0.41 | 0.00 | 99 | 1016.7 |
| 20260507060046 | 7 | 0 | 0.0 | 0.0 | 0.00 | 0.43 | 0.00 | 99 | 1016.6 |
| 20260507055041 | 7 | 0 | 0.0 | 0.0 | 0.00 | 0.43 | 0.00 | 10 | 1016.5 |
| 20260507054046 | 7 | 0 | 0.0 | 0.0 | 0.00 | 0.43 | 0.00 | 10 | 1016.5 |
| 20260507053043 | 7 | 0 | 0.0 | 0.0 | 0.00 | 0.48 | 0.00 | 10 | 1016.4 |
| 20260507051046 | 6 | 0 | 0.0 | 0.0 | 0.00 | 0.53 | 0.00 | 10 | 1016.2 |
| 20260507045046 | 6 | 0 | 0.0 | 0.0 | 0.00 | 0.58 | 0.00 | 10 | 1016.0 |
| 20260507044046 | 6 | 0 | 0.0 | 0.0 | 0.00 | 0.58 | 0.00 | 10 | 1015.9 |
| 20260507043052 | 6 | 0 | 0.0 | 0.0 | 0.00 | 0.58 | 0.00 | 10 | 1015.8 |
| 20260507042045 | 6 | 0 | 0.0 | 0.0 | 0.00 | 0.61 | 0.00 | 10 | 1015.7 |
| 20260507041044 | 6 | 0 | 0.0 | 0.0 | 0.00 | 0.61 | 0.00 | 10 | 1015.6 |
| 20260507040044 | 6 | 0 | 0.0 | 0.0 | 0.00 | 0.61 | 0.00 | 10 | 1015.6 |
| 20260507035044 | 6 | 0 | 0.0 | 0.0 | 0.00 | 0.61 | 0.00 | 10 | 1015.5 |
| 20260507034044 | 6 | 0 | 0.0 | 0.0 | 0.00 | 0.64 | 0.00 | 10 | 1015.4 |
| 20260507033043 | 6 | 0 | 0.0 | 0.0 | 0.00 | 0.64 | 0.00 | 10 | 1015.4 |
| 20260507031046 | 6 | 0 | 0.0 | 0.0 | 0.00 | 0.69 | 0.00 | 10 | 1015.3 |
| 20260507024043 | 6 | 0 | 0.0 | 0.0 | 0.00 | 0.74 | 0.00 | 10 | 1015.2 |
| 20260507023041 | 6 | 0 | 0.0 | 0.0 | 0.00 | 0.74 | 0.00 | 10 | 1015.1 |
| 20260507022046 | 6 | 0 | 0.0 | 0.0 | 0.00 | 0.79 | 0.00 | 10 | 1015.0 |
| 20260507021045 | 7 | 0 | 0.0 | 0.0 | 0.00 | 0.79 | 0.00 | 10 | 1015.0 |
| 20260507020044 | 7 | 0 | 0.0 | 0.0 | 0.00 | 0.81 | 0.00 | 10 | 1014.9 |
| 20260507014045 | 7 | 0 | 0.0 | 0.0 | 0.00 | 0.84 | 0.00 | 99 | 1014.9 |
| 20260507013042 | 7 | 0 | 0.0 | 0.0 | 0.00 | 0.84 | 0.00 | 98 | 1014.9 |
| 20260507011047 | 7 | 0 | 0.0 | 0.0 | 0.00 | 0.86 | 0.00 | 98 | 1014.9 |
| 20260507010048 | 7 | 0 | 0.0 | 0.0 | 0.00 | 0.89 | 0.00 | 99 | 1014.8 |
| 20260507005044 | 7 | 0 | 0.0 | 0.0 | 0.00 | 0.89 | 0.00 | 99 | 1014.8 |
| 20260507004045 | 7 | 0 | 0.0 | 0.0 | 0.00 | 0.91 | 0.00 | 99 | 1014.8 |
| 20260507003044 | 7 | 0 | 0.0 | 0.0 | 0.00 | 0.94 | 0.00 | 10 | 1014.7 |
| 20260507002045 | 7 | 0 | 0.0 | 0.0 | 0.00 | 0.97 | 0.00 | 10 | 1014.7 |
| 20260507001044 | 7 | 0 | 0.0 | 0.0 | 0.00 | 0.99 | 0.00 | 10 | 1014.6 |
| 20260507000042 | 7 | 0 | 0.0 | 0.0 | 0.00 | 0.99 | 0.00 | 10 | 1014.5 |
| 20260506235048 | 7 | 0 | 0.0 | 0.0 | 0.00 | 1.04 | 0.00 | 10 | 1014.5 |
| 20260506234047 | 7 | 0 | 0.0 | 0.0 | 0.00 | 1.07 | 0.00 | 10 | 1014.5 |
| 20260506233047 | 7 | 0 | 0.0 | 0.0 | 0.00 | 1.09 | 0.00 | 10 | 1014.4 |
| 20260506232055 | 7 | 0 | 0.0 | 0.0 | 0.00 | 1.14 | 0.00 | 10 | 1014.3 |
| 20260506231047 | 7 | 0 | 0.0 | 0.0 | 0.00 | 1.17 | 0.00 | 10 | 1014.3 |
| 20260506225047 | 7 | 0 | 0.0 | 0.0 | 0.00 | 1.27 | 0.00 | 10 | 1014.2 |
| 20260506224049 | 7 | 0 | 0.0 | 0.0 | 0.00 | 1.30 | 0.00 | 10 | 1014.1 |
| 20260506223049 | 7 | 0 | 0.0 | 0.0 | 0.00 | 1.35 | 0.00 | 10 | 1014.0 |
| 20260506222048 | 7 | 0 | 0.0 | 0.0 | 0.00 | 1.37 | 0.00 | 10 | 1014.0 |
| 20260506221045 | 7 | 0 | 0.0 | 0.0 | 0.00 | 1.40 | 0.00 | 10 | 1013.8 |
| 20260506220056 | 7 | 0 | 0.0 | 0.0 | 0.00 | 1.42 | 0.00 | 10 | 1013.7 |
| 20260506215051 | 7 | 0 | 0.0 | 0.0 | 0.00 | 1.45 | 1.42 | 10 | 1013.7 |
| 20260506214050 | 7 | 0 | 0.0 | 0.0 | 0.00 | 1.45 | 1.42 | 10 | 1013.7 |
| 20260506213050 | 7 | 0 | 0.0 | 0.0 | 0.00 | 1.47 | 1.42 | 10 | 1013.6 |
| 20260506212051 | 7 | 0 | 0.0 | 0.0 | 0.00 | 1.52 | 1.42 | 10 | 1013.5 |
| 20260506211049 | 7 | 0 | 0.0 | 0.0 | 0.00 | 1.55 | 1.42 | 99 | 1013.3 |
| 20260506204049 | 7 | 0 | 0.0 | 0.0 | 0.00 | 1.63 | 1.42 | 97 | 1013.2 |
| 20260506203050 | 7 | 0 | 0.0 | 0.0 | 0.00 | 1.63 | 1.42 | 96 | 1013.2 |
| 20260506202051 | 7 | 0 | 0.0 | 0.0 | 0.00 | 1.65 | 1.42 | 96 | 1013.1 |
| 20260506201053 | 7 | 0 | 0.0 | 0.0 | 0.00 | 1.68 | 1.42 | 95 | 1012.9 |
| 20260506200050 | 8 | 0 | 0.0 | 0.0 | 0.00 | 1.73 | 1.42 | 94 | 1012.9 |
| 20260506195049 | 8 | 0 | 0.0 | 0.0 | 0.00 | 1.75 | 1.42 | 94 | 1012.8 |
| 20260506194049 | 8 | 0 | 0.0 | 0.0 | 0.00 | 1.75 | 1.42 | 94 | 1012.7 |
| 20260506193047 | 8 | 0 | 0.0 | 0.0 | 0.00 | 1.78 | 1.42 | 92 | 1012.6 |
| 20260506192048 | 8 | 0 | 0.0 | 0.0 | 0.00 | 1.80 | 1.42 | 92 | 1012.5 |
| 20260506190052 | 8 | 0 | 0.0 | 0.0 | 0.00 | 1.83 | 1.42 | 92 | 1012.4 |
| 20260506185048 | 8 | 0 | 0.0 | 0.0 | 0.00 | 1.88 | 1.42 | 92 | 1012.3 |
| 20260506184049 | 9 | 0 | 0.0 | 0.0 | 0.00 | 1.91 | 1.42 | 91 | 1012.2 |
| 20260506183048 | 9 | 0 | 0.0 | 0.0 | 0.00 | 1.93 | 1.42 | 89 | 1012.1 |
| 20260506182049 | 9 | 0 | 0.0 | 0.0 | 0.00 | 1.93 | 1.42 | 89 | 1011.9 |
| 20260506181047 | 10 | 0 | 0.0 | 0.0 | 0.00 | 1.96 | 1.42 | 89 | 1011.9 |
| 20260506180049 | 10 | 0 | 0.0 | 0.0 | 0.00 | 1.98 | 1.42 | 88 | 1011.6 |
| 20260506174048 | 10 | 0 | 0.0 | 0.0 | 0.00 | 2.01 | 1.42 | 88 | 1011.4 |
| 20260506173046 | 10 | 0 | 0.0 | 0.0 | 0.00 | 2.03 | 1.42 | 89 | 1011.2 |
| 20260506172048 | 10 | 0 | 0.0 | 0.0 | 0.00 | 2.03 | 1.42 | 88 | 1011.1 |
| 20260506171048 | 10 | 0 | 0.0 | 0.0 | 0.00 | 2.03 | 1.42 | 88 | 1011.0 |
| 20260506170045 | 10 | 0 | 0.0 | 0.0 | 0.00 | 2.03 | 1.42 | 89 | 1011.0 |
| 20260506163046 | 10 | 0 | 0.0 | 0.0 | 0.00 | 2.06 | 1.42 | 87 | 1010.9 |
| 20260506162048 | 10 | 0 | 0.0 | 0.0 | 0.00 | 2.06 | 1.42 | 89 | 1010.9 |